Location: Chuathbaluk
(61.5726°N, 159.2454°W)
Time: 14:29:19
(UTC+00:00)

DELFI C3 - Pass Details

Date: 23 January 2021
Orbit: 531 x 550 km, 97.4° (Epoch: 04 March)

Event Time Altitude Azimuth Distance (km) Brightness Sun altitude
Exits shadow 07:26:39 15° 295° (WNW) 1,546 ? -35.2°
Drops below altitude 10° 07:28:05 10° 315° (NW) 1,841 ? -35.4°
Sets 07:30:54 0° 337° (NNW) 2,743 ? -35.7°
